Weather History for Ft Lauderdale, FL

Change the Weather History Date:

Thursday, July 18, 2013

  Actual Average Record
Temperature  
Mean Temperature 78 °F 84 °F  
Max Temperature 84 °F 91 °F 96 °F (1956)
Min Temperature 72 °F 78 °F 68 °F (1916)
Degree Days  
Heating Degree Days 0 0  
Month to date heating degree days 0 0  
Since 1 June heating degree days 0 0  
Since 1 July heating degree days 0 0  
Cooling Degree Days 13 19  
Month to date cooling degree days 290 342  
Year to date cooling degree days 2230 2303  
Since 1 June cooling degree days 834 885  
Growing Degree Days 26 (Base 50)    
Moisture  
Dew Point 73 °F    
Average Humidity 90    
Maximum Humidity 100    
Minimum Humidity 79    
Precipitation  
Precipitation 1.55 in 0.17 in 2.19 in (1917)
Month to date precipitation 13.22 3.67  
Year to date precipitation 52.73 31.32  
Snow  
Snow 0.00 in - - ()
Month to date snowfall 0.0  
Since 1 June snowfall 0.0  
Since 1 July snowfall 0.0  
Snow Depth 0.00 in    
Sea Level Pressure  
Sea Level Pressure 30.09 in    
Wind  
Wind Speed 5 mph (ENE)    
Max Wind Speed 17 mph    
Max Gust Speed 23 mph    
Visibility 8 miles    
Events Rain , Thunderstorm    
T = Trace of Precipitation, MM = Missing Value Source: NWS Daily Summary

Daily Weather History Graph

Daily Weather History Graph

Search for Another Location

Airport:

Trip Planner

Search our weather history database for the weather conditions in past years. The results will help you decide how hot, cold, wet, or windy it might be!

Date:

Astronomy

Jul. 18, 2013 Rise Set
Actual Time 6:39 AM EDT 8:13 PM EDT
Civil Twilight 6:14 AM EDT 8:39 PM EDT
Nautical Twilight 5:43 AM EDT 9:09 PM EDT
Astronomical Twilight 5:11 AM EDT 9:41 PM EDT
Moon 4:11 PM EDT (7/18) 2:23 AM EDT (7/18)
Length of Visible Light 14h 25m
Length of Day
13h 34m
Waxing Gibbous, 77% of the Moon is Illuminated
Jul 18
Waxing Gibbous
Jul 22
Full
Jul 29
Last Quarter
Aug 6
New
Aug 14
First Quarter

Hourly Weather History & Observations

Time (EDT) Temp. Heat Index Dew Point Humidity Pressure Visibility Wind Dir Wind Speed Gust Speed Precip Events Conditions
12:53 AM 75.0 °F - 73.0 °F 94% 30.09 in 10.0 mi Calm Calm - N/A   Scattered Clouds
1:53 AM 75.0 °F - 73.0 °F 94% 30.08 in 10.0 mi NNW 3.5 mph - N/A   Scattered Clouds
2:16 AM 73.4 °F - 73.4 °F 100% 30.07 in 10.0 mi Calm Calm - N/A Thunderstorm Thunderstorm
2:35 AM 73.4 °F - 73.4 °F 100% 30.07 in 10.0 mi Calm Calm - N/A   Scattered Clouds
2:53 AM 73.9 °F - 73.0 °F 97% 30.06 in 10.0 mi NNW 3.5 mph - N/A   Mostly Cloudy
3:03 AM 73.4 °F - 73.4 °F 100% 30.06 in 10.0 mi Calm Calm - N/A   Mostly Cloudy
3:53 AM 75.0 °F - 73.0 °F 94% 30.06 in 10.0 mi Calm Calm - N/A   Partly Cloudy
4:10 AM 73.4 °F - 73.4 °F 100% 30.05 in 10.0 mi NNE 4.6 mph - N/A Thunderstorm Thunderstorm
4:49 AM 73.4 °F - 73.4 °F 100% 30.06 in 10.0 mi Calm Calm - N/A   Scattered Clouds
4:53 AM 73.9 °F - 73.0 °F 97% 30.06 in 10.0 mi Calm Calm - N/A   Scattered Clouds
5:53 AM 73.9 °F - 73.0 °F 97% 30.07 in 10.0 mi Calm Calm - N/A   Scattered Clouds
6:53 AM 75.9 °F - 73.0 °F 91% 30.09 in 10.0 mi ENE 5.8 mph - N/A   Mostly Cloudy
7:53 AM 77.0 °F - 73.0 °F 88% 30.09 in 10.0 mi East 4.6 mph - N/A   Mostly Cloudy
8:53 AM 75.9 °F - 72.0 °F 87% 30.12 in 10.0 mi ESE 12.7 mph - N/A   Mostly Cloudy
9:53 AM 75.0 °F - 72.0 °F 90% 30.13 in 6.0 mi SE 6.9 mph - 0.02 in Rain Light Rain
10:04 AM 75.2 °F - 71.6 °F 89% 30.14 in 5.0 mi SSE 4.6 mph - 0.04 in Rain , Thunderstorm Thunderstorms and Rain
10:48 AM 73.4 °F - 71.6 °F 94% 30.12 in 5.0 mi Calm Calm - 0.12 in Rain Rain
10:53 AM 73.9 °F - 71.1 °F 91% 30.12 in 5.0 mi Calm Calm - 0.12 in Rain Light Rain
11:53 AM 75.9 °F - 73.0 °F 91% 30.13 in 10.0 mi Calm Calm - 0.06 in Rain Light Rain
12:53 PM 78.1 °F - 72.0 °F 81% 30.13 in 10.0 mi SSE 9.2 mph - 0.00 in   Mostly Cloudy
1:53 PM 81.0 °F 86.2 °F 73.9 °F 79% 30.10 in 10.0 mi ESE 8.1 mph - N/A   Scattered Clouds
2:53 PM 82.0 °F 89.4 °F 75.9 °F 82% 30.09 in 10.0 mi ESE 8.1 mph - N/A   Scattered Clouds
3:53 PM 82.9 °F 90.8 °F 75.9 °F 79% 30.08 in 10.0 mi SE 10.4 mph - N/A   Scattered Clouds
4:22 PM 82.4 °F 89.5 °F 75.2 °F 79% 30.08 in 10.0 mi SE 9.2 mph - N/A   Mostly Cloudy
4:53 PM 82.0 °F 89.4 °F 75.9 °F 82% 30.07 in 10.0 mi East 9.2 mph - N/A   Scattered Clouds
5:04 PM 75.2 °F - 69.8 °F 83% 30.09 in 10.0 mi WNW 13.8 mph 20.7 mph N/A Thunderstorm Thunderstorm
5:16 PM 73.4 °F - 69.8 °F 88% 30.09 in 10.0 mi NW 11.5 mph 19.6 mph N/A Thunderstorm Thunderstorm
5:28 PM 73.4 °F - 71.6 °F 94% 30.10 in 1.0 mi West 12.7 mph - 0.13 in Rain , Thunderstorm Heavy Thunderstorms and Rain
5:48 PM 71.6 °F - 71.6 °F 100% 30.08 in 3.0 mi NNW 13.8 mph - 1.07 in Rain Rain
5:53 PM 72.0 °F - 71.1 °F 97% 30.09 in 6.0 mi NW 10.4 mph - 1.08 in Rain Light Rain
6:07 PM 71.6 °F - 71.6 °F 100% 30.08 in 9.0 mi NW 9.2 mph - 0.03 in Rain Light Rain
6:31 PM 71.6 °F - 69.8 °F 94% 30.10 in 7.0 mi Calm Calm - 0.04 in Rain , Thunderstorm Light Thunderstorms and Rain
6:53 PM 73.0 °F - 72.0 °F 96% 30.11 in 5.0 mi SSE 5.8 mph - 0.08 in Rain , Thunderstorm Thunderstorms and Rain
7:13 PM 73.4 °F - 71.6 °F 94% 30.09 in 7.0 mi NNE 5.8 mph - 0.02 in Rain Light Rain
7:44 PM 73.4 °F - 71.6 °F 94% 30.10 in 5.0 mi NE 4.6 mph - 0.06 in Rain , Thunderstorm Light Thunderstorms and Rain
7:53 PM 73.0 °F - 72.0 °F 96% 30.10 in 6.0 mi NNE 4.6 mph - 0.08 in Rain , Thunderstorm Light Thunderstorms and Rain
8:53 PM 73.9 °F - 73.0 °F 97% 30.11 in 10.0 mi East 4.6 mph - 0.10 in Rain Light Rain
9:53 PM 73.9 °F - 72.0 °F 93% 30.08 in 10.0 mi Calm Calm - 0.01 in   Scattered Clouds
10:53 PM 75.0 °F - 72.0 °F 90% 30.09 in 10.0 mi Calm Calm - N/A   Scattered Clouds
11:53 PM 75.9 °F - 72.0 °F 87% 30.10 in 10.0 mi SE 3.5 mph - N/A   Partly Cloudy